Regional Weather Roundup
Issued by NWS

Home | Current Version | Previous Version | Text Only | Print | Product List | Glossary On
Versions: 1 2 3 4 5 6 7 8 9 10 11 12 13 14 15 16 17 18 19 20 21 22 23 24 25 26 27 28 29 30 31 32 33 34 35 36 37 38 39 40 41 42 43 44 45 46 47 48 49 50
000
ASUS43 KLMK 160610
RWRKY
KENTUCKY REGIONAL WEATHER ROUNDUP
NATIONAL WEATHER SERVICE LOUISVILLE KY
200 AM EDT WED AUG 16 2017

NOTE "FAIR" INDICATES FEW OR NO CLOUDS BELOW 12,000 FEET
WITH NO SIGNIFICANT WEATHER AND/OR OBSTRUCTIONS TO VISIBILITY.

KYZ001>023-026-027-061>063-070>075-160700-
WESTERN AND SOUTH CENTRAL KENTUCKY

CITY           SKY/WX    TMP DP  RH WIND       PRES   REMARKS
PADUCAH        PTCLDY    71  69  93 CALM      29.94F
HENDERSON      CLEAR     70  69  97 SE3       29.96S
OWENSBORO      PTCLDY    74  72  93 S6        29.97S
HOPKINSVILLE   CLEAR     74  71  88 SE3       29.97F
BOWLING GREEN  CLOUDY    76  71  85 CALM      29.99S
GLASGOW        MOCLDY    72  72 100 W3        30.00R FOG
$$

KYZ024-025-028>034-038-045-046-053-160700-
NORTH CENTRAL KENTUCKY

CITY           SKY/WX    TMP DP  RH WIND       PRES   REMARKS
LOUISVILLE/SDF PTCLDY    77  71  82 CALM      29.98R
LOUISVILLE/LOU CLEAR     75  72  90 CALM      29.99R
FORT KNOX      PTCLDY    72  72 100 CALM      29.98S
$$

KYZ035>037-039>044-047>052-055>060-089>105-160700-
NORTHEAST KENTUCKY

CITY           SKY/WX    TMP DP  RH WIND       PRES   REMARKS
LEXINGTON      CLEAR     73  68  84 CALM      30.01S
COVINGTON      PTCLDY    73  70  90 CALM      30.00R
FRANKFORT      CLEAR     72  68  87 CALM      29.99S FOG
$$

KYZ054-064>069-076>088-106>120-160700-
SOUTHEAST KENTUCKY

CITY           SKY/WX    TMP DP  RH WIND       PRES   REMARKS
JACKSON        PTCLDY    73  71  93 CALM      30.03S FOG
LONDON         FOG       71  70  96 CALM      30.02F VSB 1/2
SOMERSET       CLEAR     68  68 100 CALM      30.02F FOG
MIDDLESBORO    CLOUDY    71  71 100 CALM      30.03F
MONTICELLO     FOG       68  68 100 W9        30.03S VSB 3/4
$$





USA.gov is the U.S. government's official web portal to all federal, state and local government web resources and services.